Retour au catalogue

STARLINK-11614

ActifCommunicationsVLEO
NORAD 63270·PAYLOAD·🇺🇸 United States

Lancé Mar 15, 2025 depuis Cape Canaveral Space Force Station

Loading…

Prochains Passages (prochaines 24 heures)

TLE

FraisSource: CelesTrak SupGP

Époque: Sep 15, 2026, 02:19 UTC

1 63270C 25053F   26258.09701389 -.00041400  00000+0 -32136-3 0  2589
2 63270  43.0011  50.7285 0001635 271.4672 184.0050 15.70873306    19

Suivez STARLINK-11614 en temps réel avec AllMySat

Download on the App Store